Regional Weather Roundup
Issued by NWS Charleston, WV

Home | Current Version | Previous Version | Graphics & Text | Print | Product List | Glossary On
Versions: 1 2 3 4 5 6 7 8 9 10 11 12 13 14 15 16 17 18 19 20 21 22 23 24 25 26 27 28 29 30 31 32 33 34 35 36 37 38 39 40 41 42 43 44 45 46 47 48 49 50
000
ASUS41 KRLX 202210
RWRRLX
West Virginia Regional Weather Roundup
National Weather Service Charleston WV
600 PM EDT MON OCT 20 2014

Note: "fair" indicates few or no clouds below 12,000 feet with no
significant weather and/or obstructions to visibility.

WVZ003-202300-
Northern Panhandle of West Virginia

CITY           SKY/WX    TMP DP  RH WIND       PRES   REMARKS
WHEELING       CLOUDY    55  42  61 SW9       29.89S
$$

WVZ009-202300-
Northwest West Virginia

CITY           SKY/WX    TMP DP  RH WIND       PRES   REMARKS
PARKERSBURG    CLOUDY    57  44  62 SW6       29.94R
$$

WVZ006-202300-
Western West Virginia

CITY           SKY/WX    TMP DP  RH WIND       PRES   REMARKS
HUNTINGTON     MOCLDY    57  47  69 S10       29.90F
$$

WVZ015-202300-
West Central West Virginia

CITY           SKY/WX    TMP DP  RH WIND       PRES   REMARKS
CHARLESTON     CLOUDY    59  47  64 S6        29.92F
$$

WVZ022-031-202300-
North Central West Virginia

CITY           SKY/WX    TMP DP  RH WIND       PRES   REMARKS
CLARKSBURG     CLOUDY    56  43  61 SW9       29.91F
MORGANTOWN     CLOUDY    59  39  47 SW6       29.92S
$$

WVZ025-035-042-045-202300-
Southern West Virginia

CITY           SKY/WX    TMP DP  RH WIND       PRES   REMARKS
BECKLEY        CLOUDY    54  44  69 S5        29.96F
LOGAN          MOCLDY    57  46  67 SW3       29.94S
BLUEFIELD      LGT RAIN  54  45  71 SW3       29.99F
LEWISBURG      LGT RAIN  57  43  58 SW10G18   29.97S
$$

WVZ047-202300-
Northern Mountains of West Virginia

CITY           SKY/WX    TMP DP  RH WIND       PRES   REMARKS
ELKINS         CLOUDY    51  48  89 CALM      29.94F
$$

WVZ052-202300-
Eastern Panhandle of West Virginia

CITY           SKY/WX    TMP DP  RH WIND       PRES   REMARKS
MARTINSBURG    CLOUDY    61  40  45 N3        29.95R
PETERSBURG     CLOUDY   N/A N/A N/A E3        29.94F
$$


USA.gov is the U.S. government's official web portal to all federal, state and local government web resources and services.